| time (UTC) | temp C | wind direction | speed KPH | gust KPH | rain 1hr cm | rain 24hr cm | rain mn cm | humidity % | barometer mb |
| 20260508214004 | 14 | 262 | 3.2 | 14.5 | 0.00 | 0.00 | 0.00 | 24 | 1002.4 |
| 20260508213504 | 15 | 261 | 6.4 | 14.5 | 0.00 | 0.00 | 0.00 | 23 | 1002.3 |
| 20260508213005 | 15 | 257 | 6.4 | 12.9 | 0.00 | 0.00 | 0.00 | 23 | 1002.3 |
| 20260508211004 | 15 | 261 | 6.4 | 17.7 | 0.00 | 0.00 | 0.00 | 21 | 1002.3 |
| 20260508210505 | 15 | 255 | 4.8 | 17.7 | 0.00 | 0.00 | 0.00 | 21 | 1002.3 |
| 20260508210004 | 16 | 257 | 6.4 | 22.5 | 0.00 | 0.00 | 0.00 | 21 | 1002.2 |
| 20260508205504 | 16 | 259 | 6.4 | 22.5 | 0.00 | 0.00 | 0.00 | 20 | 1002.3 |
| 20260508205004 | 16 | 249 | 8.0 | 20.9 | 0.00 | 0.00 | 0.00 | 20 | 1002.0 |
| 20260508204505 | 16 | 248 | 8.0 | 29.0 | 0.00 | 0.00 | 0.00 | 21 | 1002.1 |
| 20260508204004 | 16 | 260 | 6.4 | 29.0 | 0.00 | 0.00 | 0.00 | 20 | 1002.0 |
| 20260508203005 | 17 | 254 | 9.7 | 29.0 | 0.00 | 0.00 | 0.00 | 20 | 1001.9 |
| 20260508202505 | 16 | 249 | 6.4 | 29.0 | 0.00 | 0.00 | 0.00 | 20 | 1001.8 |
| 20260508202004 | 17 | 262 | 11.3 | 27.4 | 0.00 | 0.00 | 0.00 | 21 | 1001.6 |
| 20260508201005 | 17 | 259 | 9.7 | 29.0 | 0.00 | 0.00 | 0.00 | 22 | 1001.3 |
| 20260508200005 | 17 | 260 | 11.3 | 27.4 | 0.00 | 0.00 | 0.00 | 22 | 1001.6 |
| 20260508195505 | 17 | 249 | 9.7 | 27.4 | 0.00 | 0.00 | 0.00 | 22 | 1001.6 |
| 20260508194504 | 17 | 276 | 4.8 | 25.7 | 0.00 | 0.00 | 0.00 | 24 | 1001.8 |
| 20260508194005 | 16 | 261 | 17.7 | 27.4 | 0.00 | 0.00 | 0.00 | 24 | 1001.8 |
| 20260508193504 | 17 | 252 | 9.7 | 27.4 | 0.00 | 0.00 | 0.00 | 25 | 1001.6 |
| 20260508193004 | 16 | 263 | 14.5 | 25.7 | 0.00 | 0.00 | 0.00 | 24 | 1001.7 |
| 20260508192504 | 17 | 266 | 12.9 | 27.4 | 0.00 | 0.00 | 0.00 | 24 | 1001.5 |
| 20260508191504 | 17 | 253 | 11.3 | 20.9 | 0.00 | 0.00 | 0.00 | 26 | 1002.0 |
| 20260508190504 | 16 | 274 | 6.4 | 27.4 | 0.00 | 0.00 | 0.00 | 27 | 1001.9 |
| 20260508190004 | 16 | 271 | 9.7 | 25.7 | 0.00 | 0.00 | 0.00 | 27 | 1002.0 |
| 20260508185004 | 17 | 275 | 6.4 | 25.7 | 0.00 | 0.00 | 0.00 | 28 | 1002.1 |
| 20260508184504 | 16 | 273 | 8.0 | 25.7 | 0.00 | 0.00 | 0.00 | 28 | 1002.2 |
| 20260508183504 | 16 | 270 | 12.9 | 29.0 | 0.00 | 0.00 | 0.00 | 30 | 1002.4 |
| 20260508183004 | 16 | 265 | 12.9 | 29.0 | 0.00 | 0.00 | 0.00 | 30 | 1002.3 |
| 20260508182504 | 16 | 272 | 12.9 | 33.8 | 0.00 | 0.00 | 0.00 | 30 | 1002.6 |
| 20260508181504 | 16 | 278 | 9.7 | 29.0 | 0.00 | 0.00 | 0.00 | 29 | 1002.6 |
| 20260508181004 | 16 | 280 | 16.1 | 25.7 | 0.00 | 0.00 | 0.00 | 30 | 1002.5 |
| 20260508180505 | 16 | 270 | 6.4 | 24.1 | 0.00 | 0.00 | 0.00 | 31 | 1002.7 |
| 20260508180005 | 16 | 270 | 12.9 | 24.1 | 0.00 | 0.00 | 0.00 | 30 | 1002.6 |
| 20260508175004 | 16 | 265 | 6.4 | 24.1 | 0.00 | 0.00 | 0.00 | 31 | 1002.7 |
| 20260508174505 | 15 | 256 | 12.9 | 24.1 | 0.00 | 0.00 | 0.00 | 31 | 1002.8 |
| 20260508174004 | 16 | 258 | 8.0 | 24.1 | 0.00 | 0.00 | 0.00 | 31 | 1002.8 |
| 20260508173504 | 16 | 270 | 12.9 | 33.8 | 0.00 | 0.00 | 0.00 | 31 | 1002.6 |
| 20260508173004 | 15 | 274 | 12.9 | 33.8 | 0.00 | 0.00 | 0.00 | 33 | 1002.7 |
| 20260508172504 | 15 | 266 | 16.1 | 25.7 | 0.00 | 0.00 | 0.00 | 33 | 1002.7 |
| 20260508171504 | 15 | 274 | 17.7 | 35.4 | 0.00 | 0.00 | 0.00 | 34 | 1003.1 |
| 20260508171004 | 16 | 259 | 9.7 | 22.5 | 0.00 | 0.00 | 0.00 | 34 | 1003.1 |
| 20260508170505 | 15 | 244 | 9.7 | 24.1 | 0.00 | 0.00 | 0.00 | 34 | 1003.2 |
| 20260508165504 | 15 | 253 | 8.0 | 25.7 | 0.00 | 0.00 | 0.00 | 35 | 1003.4 |
| 20260508165005 | 15 | 274 | 11.3 | 25.7 | 0.00 | 0.00 | 0.00 | 36 | 1003.4 |
| 20260508164504 | 15 | 284 | 9.7 | 25.7 | 0.00 | 0.03 | 0.00 | 35 | 1003.6 |
| 20260508164004 | 15 | 275 | 9.7 | 25.7 | 0.00 | 0.03 | 0.00 | 36 | 1003.7 |
| 20260508163004 | 14 | 282 | 11.3 | 29.0 | 0.00 | 0.05 | 0.00 | 36 | 1003.7 |
| 20260508162504 | 14 | 282 | 16.1 | 29.0 | 0.00 | 0.05 | 0.00 | 37 | 1003.9 |
| 20260508161504 | 15 | 255 | 9.7 | 29.0 | 0.00 | 0.05 | 0.00 | 38 | 1003.7 |
| 20260508161004 | 15 | 274 | 6.4 | 25.7 | 0.00 | 0.05 | 0.00 | 38 | 1004.0 |
| 20260508160505 | 14 | 256 | 19.3 | 25.7 | 0.00 | 0.05 | 0.00 | 38 | 1004.2 |
| 20260508160005 | 14 | 235 | 6.4 | 22.5 | 0.00 | 0.05 | 0.00 | 38 | 1004.0 |
| 20260508155504 | 15 | 270 | 9.7 | 25.7 | 0.00 | 0.05 | 0.00 | 38 | 1004.5 |
| 20260508155004 | 15 | 277 | 4.8 | 25.7 | 0.00 | 0.10 | 0.00 | 38 | 1004.4 |
| 20260508154504 | 13 | 267 | 14.5 | 25.7 | 0.00 | 0.13 | 0.00 | 39 | 1004.7 |
| 20260508154005 | 14 | 272 | 6.4 | 25.7 | 0.00 | 0.15 | 0.00 | 39 | 1004.5 |
| 20260508152504 | 13 | 256 | 9.7 | 29.0 | 0.00 | 0.20 | 0.00 | 39 | 1004.9 |
| 20260508152005 | 13 | 275 | 12.9 | 29.0 | 0.00 | 0.20 | 0.00 | 40 | 1005.0 |
| 20260508151505 | 13 | 277 | 11.3 | 33.8 | 0.00 | 0.20 | 0.00 | 40 | 1005.2 |
| 20260508151004 | 13 | 266 | 16.1 | 33.8 | 0.00 | 0.20 | 0.00 | 41 | 1005.2 |
| 20260508150504 | 13 | 258 | 9.7 | 25.7 | 0.00 | 0.20 | 0.00 | 41 | 1005.2 |
| 20260508150005 | 13 | 265 | 9.7 | 25.7 | 0.00 | 0.20 | 0.00 | 41 | 1005.3 |
| 20260508145505 | 13 | 263 | 9.7 | 25.7 | 0.00 | 0.20 | 0.00 | 42 | 1005.3 |
| 20260508145005 | 13 | 246 | 11.3 | 25.7 | 0.00 | 0.20 | 0.00 | 42 | 1005.4 |
| 20260508144504 | 13 | 228 | 12.9 | 25.7 | 0.00 | 0.20 | 0.00 | 42 | 1005.2 |
| 20260508144004 | 13 | 230 | 6.4 | 25.7 | 0.00 | 0.20 | 0.00 | 42 | 1005.3 |
| 20260508143505 | 12 | 251 | 12.9 | 25.7 | 0.00 | 0.20 | 0.00 | 42 | 1005.3 |
| 20260508143005 | 13 | 249 | 6.4 | 25.7 | 0.00 | 0.20 | 0.00 | 43 | 1005.3 |
| 20260508142504 | 12 | 241 | 9.7 | 27.4 | 0.00 | 0.20 | 0.00 | 43 | 1005.2 |
| 20260508142005 | 12 | 248 | 12.9 | 27.4 | 0.00 | 0.20 | 0.00 | 43 | 1005.3 |
| 20260508141505 | 12 | 242 | 9.7 | 25.7 | 0.00 | 0.20 | 0.00 | 43 | 1005.4 |
| 20260508141004 | 12 | 234 | 12.9 | 25.7 | 0.00 | 0.20 | 0.00 | 43 | 1005.4 |
| 20260508140504 | 12 | 240 | 6.4 | 20.9 | 0.00 | 0.20 | 0.00 | 43 | 1005.2 |
| 20260508140005 | 12 | 237 | 11.3 | 25.7 | 0.00 | 0.20 | 0.00 | 43 | 1005.3 |
| 20260508135505 | 12 | 232 | 8.0 | 29.0 | 0.00 | 0.23 | 0.00 | 43 | 1005.2 |
| 20260508135004 | 12 | 242 | 11.3 | 29.0 | 0.00 | 0.23 | 0.00 | 44 | 1005.5 |
| 20260508133005 | 11 | 252 | 14.5 | 25.7 | 0.00 | 0.23 | 0.00 | 45 | 1005.5 |
| 20260508132004 | 11 | 257 | 12.9 | 38.6 | 0.00 | 0.23 | 0.00 | 46 | 1005.2 |
| 20260508131505 | 11 | 266 | 12.9 | 25.7 | 0.00 | 0.23 | 0.00 | 47 | 1005.1 |
| 20260508131005 | 11 | 260 | 11.3 | 25.7 | 0.00 | 0.23 | 0.00 | 47 | 1005.2 |
| 20260508130504 | 10 | 251 | 12.9 | 32.2 | 0.00 | 0.23 | 0.00 | 48 | 1005.0 |
| 20260508130004 | 10 | 253 | 12.9 | 32.2 | 0.00 | 0.23 | 0.00 | 48 | 1005.1 |
| 20260508125504 | 10 | 259 | 6.4 | 29.0 | 0.00 | 0.23 | 0.00 | 48 | 1005.1 |
| 20260508125005 | 10 | 271 | 11.3 | 20.9 | 0.00 | 0.23 | 0.00 | 48 | 1005.2 |
| 20260508124504 | 10 | 273 | 6.4 | 24.1 | 0.00 | 0.23 | 0.00 | 49 | 1005.0 |
| 20260508124004 | 10 | 259 | 12.9 | 24.1 | 0.00 | 0.23 | 0.00 | 49 | 1005.1 |
| 20260508123505 | 10 | 246 | 6.4 | 24.1 | 0.00 | 0.23 | 0.00 | 50 | 1005.2 |
| 20260508122005 | 10 | 255 | 6.4 | 17.7 | 0.00 | 0.23 | 0.00 | 52 | 1004.8 |
| 20260508121505 | 9 | 271 | 6.4 | 20.9 | 0.00 | 0.23 | 0.00 | 54 | 1005.1 |
| 20260508121004 | 8 | 274 | 8.0 | 20.9 | 0.00 | 0.23 | 0.00 | 54 | 1005.0 |
| 20260508120504 | 8 | 267 | 4.8 | 27.4 | 0.00 | 0.23 | 0.00 | 55 | 1004.9 |
| 20260508120005 | 8 | 262 | 4.8 | 27.4 | 0.00 | 0.23 | 0.00 | 56 | 1004.9 |
| 20260508115505 | 8 | 273 | 12.9 | 22.5 | 0.00 | 0.23 | 0.00 | 56 | 1005.0 |
| 20260508115005 | 8 | 274 | 9.7 | 17.7 | 0.00 | 0.23 | 0.00 | 57 | 1004.8 |
| 20260508114005 | 8 | 279 | 6.4 | 22.5 | 0.00 | 0.23 | 0.00 | 56 | 1004.6 |
| 20260508113505 | 8 | 281 | 6.4 | 20.9 | 0.00 | 0.23 | 0.00 | 55 | 1004.3 |
| 20260508112004 | 8 | 270 | 6.4 | 20.9 | 0.00 | 0.23 | 0.00 | 56 | 1004.4 |
| 20260508111504 | 8 | 275 | 8.0 | 22.5 | 0.00 | 0.23 | 0.00 | 56 | 1004.0 |
| 20260508110504 | 8 | 284 | 9.7 | 22.5 | 0.00 | 0.23 | 0.00 | 55 | 1004.2 |
| 20260508110004 | 8 | 280 | 8.0 | 20.9 | 0.00 | 0.23 | 0.00 | 55 | 1004.0 |
| 20260508105005 | 8 | 274 | 6.4 | 17.7 | 0.00 | 0.23 | 0.00 | 54 | 1003.8 |
| 20260508104504 | 8 | 275 | 6.4 | 17.7 | 0.00 | 0.23 | 0.00 | 53 | 1003.6 |
| 20260508104004 | 8 | 277 | 4.8 | 22.5 | 0.00 | 0.23 | 0.00 | 52 | 1003.5 |
| 20260508103004 | 9 | 255 | 9.7 | 22.5 | 0.00 | 0.23 | 0.00 | 50 | 1003.3 |
| 20260508102504 | 9 | 249 | 6.4 | 43.5 | 0.00 | 0.23 | 0.00 | 50 | 1003.3 |
| 20260508102004 | 9 | 254 | 9.7 | 43.5 | 0.00 | 0.23 | 0.00 | 49 | 1003.0 |
| 20260508101504 | 9 | 257 | 11.3 | 32.2 | 0.00 | 0.23 | 0.00 | 49 | 1002.8 |
| 20260508101004 | 9 | 243 | 9.7 | 22.5 | 0.00 | 0.23 | 0.00 | 49 | 1002.8 |
| 20260508100504 | 9 | 248 | 11.3 | 22.5 | 0.00 | 0.23 | 0.00 | 49 | 1002.8 |
| 20260508100004 | 9 | 245 | 11.3 | 27.4 | 0.00 | 0.23 | 0.00 | 48 | 1002.8 |
| 20260508095004 | 9 | 253 | 6.4 | 24.1 | 0.00 | 0.23 | 0.00 | 49 | 1002.7 |
| 20260508094505 | 9 | 248 | 8.0 | 25.7 | 0.00 | 0.23 | 0.00 | 50 | 1002.6 |
| 20260508093504 | 9 | 259 | 11.3 | 29.0 | 0.00 | 0.23 | 0.00 | 51 | 1002.5 |
| 20260508093004 | 9 | 253 | 9.7 | 25.7 | 0.00 | 0.23 | 0.00 | 52 | 1002.7 |
| 20260508092504 | 9 | 245 | 11.3 | 25.7 | 0.00 | 0.23 | 0.00 | 52 | 1002.7 |
| 20260508092004 | 9 | 249 | 11.3 | 29.0 | 0.00 | 0.23 | 0.00 | 53 | 1002.7 |
| 20260508091504 | 9 | 249 | 14.5 | 32.2 | 0.00 | 0.23 | 0.00 | 54 | 1002.3 |
| 20260508091004 | 9 | 257 | 12.9 | 32.2 | 0.00 | 0.23 | 0.00 | 54 | 1002.1 |
| 20260508090504 | 9 | 269 | 11.3 | 27.4 | 0.00 | 0.28 | 0.00 | 55 | 1002.2 |
| 20260508085505 | 8 | 251 | 12.9 | 24.1 | 0.00 | 0.28 | 0.00 | 57 | 1001.8 |
| 20260508085005 | 8 | 255 | 6.4 | 27.4 | 0.00 | 0.28 | 0.00 | 57 | 1001.7 |
| 20260508084004 | 8 | 261 | 12.9 | 27.4 | 0.00 | 0.28 | 0.00 | 57 | 1001.7 |
| 20260508083505 | 8 | 269 | 8.0 | 22.5 | 0.00 | 0.28 | 0.00 | 58 | 1001.6 |
| 20260508083005 | 8 | 266 | 9.7 | 20.9 | 0.00 | 0.28 | 0.00 | 58 | 1001.5 |
| 20260508082505 | 9 | 262 | 9.7 | 20.9 | 0.00 | 0.28 | 0.00 | 58 | 1001.6 |
| 20260508082004 | 9 | 264 | 8.0 | 22.5 | 0.00 | 0.28 | 0.00 | 57 | 1001.5 |
| 20260508081505 | 9 | 262 | 9.7 | 22.5 | 0.00 | 0.28 | 0.00 | 57 | 1001.5 |
| 20260508081005 | 9 | 245 | 9.7 | 20.9 | 0.00 | 0.28 | 0.00 | 57 | 1001.6 |
| 20260508080505 | 9 | 237 | 6.4 | 20.9 | 0.00 | 0.28 | 0.00 | 57 | 1001.4 |
| 20260508080005 | 9 | 236 | 6.4 | 24.1 | 0.00 | 0.28 | 0.00 | 56 | 1001.5 |
| 20260508075504 | 9 | 236 | 4.8 | 24.1 | 0.00 | 0.28 | 0.00 | 56 | 1001.5 |
| 20260508075004 | 10 | 247 | 6.4 | 22.5 | 0.00 | 0.28 | 0.00 | 56 | 1001.4 |
| 20260508074505 | 10 | 229 | 8.0 | 22.5 | 0.00 | 0.36 | 0.00 | 56 | 1001.6 |
| 20260508074005 | 10 | 223 | 8.0 | 22.5 | 0.00 | 0.36 | 0.00 | 56 | 1001.3 |
| 20260508073504 | 10 | 242 | 4.8 | 22.5 | 0.00 | 0.36 | 0.00 | 58 | 1001.6 |
| 20260508073004 | 10 | 232 | 6.4 | 22.5 | 0.00 | 0.36 | 0.00 | 58 | 1001.5 |
| 20260508072505 | 10 | 223 | 8.0 | 22.5 | 0.00 | 0.38 | 0.00 | 58 | 1001.5 |
| 20260508072005 | 10 | 235 | 4.8 | 17.7 | 0.00 | 0.43 | 0.00 | 58 | 1001.5 |
| 20260508071005 | 10 | 250 | 8.0 | 17.7 | 0.00 | 0.48 | 0.00 | 59 | 1001.5 |
| 20260508070505 | 10 | 252 | 6.4 | 17.7 | 0.00 | 0.48 | 0.00 | 59 | 1001.5 |
| 20260508070006 | 10 | 246 | 9.7 | 17.7 | 0.00 | 0.48 | 0.00 | 58 | 1001.5 |
| 20260508065005 | 10 | 228 | 4.8 | 20.9 | 0.00 | 0.48 | 0.00 | 58 | 1001.3 |
| 20260508064505 | 10 | 230 | 8.0 | 20.9 | 0.00 | 0.48 | 0.00 | 57 | 1001.6 |
| 20260508064005 | 10 | 244 | 12.9 | 20.9 | 0.00 | 0.48 | 0.00 | 56 | 1001.6 |
| 20260508063505 | 10 | 252 | 11.3 | 20.9 | 0.00 | 0.48 | 0.00 | 56 | 1001.4 |
| 20260508063005 | 10 | 238 | 8.0 | 20.9 | 0.00 | 0.48 | 0.00 | 55 | 1001.4 |
| 20260508062504 | 10 | 228 | 12.9 | 25.7 | 0.00 | 0.48 | 0.00 | 55 | 1001.4 |
| 20260508062005 | 10 | 230 | 6.4 | 25.7 | 0.00 | 0.48 | 0.00 | 55 | 1001.2 |
| 20260508061505 | 10 | 231 | 9.7 | 24.1 | 0.00 | 0.48 | 0.00 | 54 | 1001.4 |
| 20260508061005 | 10 | 234 | 4.8 | 24.1 | 0.00 | 0.48 | 0.00 | 54 | 1001.5 |
| 20260508060005 | 11 | 253 | 8.0 | 17.7 | 0.00 | 0.48 | 0.00 | 53 | 1001.7 |
| 20260508055505 | 11 | 236 | 8.0 | 17.7 | 0.00 | 0.48 | 0.00 | 54 | 1001.7 |
| 20260508055005 | 11 | 243 | 4.8 | 20.9 | 0.00 | 0.48 | 0.00 | 55 | 1001.6 |
| 20260508054505 | 11 | 252 | 9.7 | 20.9 | 0.00 | 0.48 | 0.00 | 54 | 1001.8 |
| 20260508053004 | 10 | 262 | 4.8 | 12.9 | 0.00 | 0.48 | 0.00 | 58 | 1002.1 |
| 20260508052005 | 10 | 274 | 6.4 | 12.9 | 0.00 | 0.48 | 0.00 | 62 | 1002.3 |
| 20260508051504 | 10 | 274 | 6.4 | 12.9 | 0.00 | 0.48 | 0.00 | 63 | 1002.2 |
| 20260508051005 | 10 | 285 | 6.4 | 17.7 | 0.00 | 0.48 | 0.00 | 64 | 1002.1 |
| 20260508050505 | 9 | 296 | 6.4 | 17.7 | 0.00 | 0.48 | 0.00 | 66 | 1001.9 |
| 20260508050005 | 9 | 303 | 6.4 | 17.7 | 0.00 | 0.48 | 0.00 | 68 | 1002.0 |
| 20260508045505 | 9 | 310 | 6.4 | 17.7 | 0.00 | 0.48 | 0.00 | 70 | 1002.0 |
| 20260508045006 | 9 | 313 | 8.0 | 14.5 | 0.00 | 0.48 | 0.00 | 72 | 1001.9 |
| 20260508044505 | 9 | 313 | 8.0 | 14.5 | 0.00 | 0.48 | 0.00 | 71 | 1001.8 |
| 20260508044005 | 9 | 303 | 8.0 | 12.9 | 0.00 | 0.48 | 0.00 | 70 | 1001.7 |
| 20260508043505 | 10 | 294 | 6.4 | 14.5 | 0.00 | 0.48 | 0.00 | 67 | 1001.7 |
| 20260508043005 | 11 | 299 | 8.0 | 14.5 | 0.00 | 0.48 | 0.00 | 60 | 1001.7 |
| 20260508042504 | 11 | 297 | 9.7 | 17.7 | 0.00 | 0.48 | 0.00 | 60 | 1001.7 |
| 20260508042004 | 12 | 287 | 6.4 | 17.7 | 0.00 | 0.48 | 0.00 | 57 | 1001.7 |
| 20260508041505 | 12 | 281 | 8.0 | 17.7 | 0.00 | 0.48 | 0.00 | 54 | 1001.2 |
| 20260508041005 | 12 | 264 | 11.3 | 20.9 | 0.00 | 0.48 | 0.00 | 53 | 1001.0 |
| 20260508040505 | 13 | 233 | 4.8 | 20.9 | 0.00 | 0.48 | 0.00 | 54 | 1000.6 |
| 20260508040005 | 13 | 222 | 11.3 | 20.9 | 0.00 | 0.48 | 0.00 | 54 | 1000.6 |
| 20260508035504 | 12 | 215 | 4.8 | 20.9 | 0.00 | 0.48 | 0.00 | 54 | 1000.3 |
| 20260508035005 | 12 | 213 | 4.8 | 17.7 | 0.00 | 0.48 | 0.00 | 55 | 1000.0 |
| 20260508033505 | 12 | 263 | 8.0 | 22.5 | 0.00 | 0.48 | 0.00 | 57 | 1000.7 |
| 20260508033005 | 11 | 259 | 8.0 | 22.5 | 0.00 | 0.48 | 0.00 | 57 | 1000.7 |
| 20260508032505 | 11 | 250 | 11.3 | 20.9 | 0.00 | 0.48 | 0.00 | 57 | 1000.9 |
| 20260508032005 | 11 | 263 | 8.0 | 20.9 | 0.00 | 0.48 | 0.00 | 57 | 1000.9 |
| 20260508031505 | 11 | 269 | 4.8 | 14.5 | 0.00 | 0.48 | 0.00 | 58 | 1000.6 |
| 20260508030505 | 11 | 267 | 6.4 | 20.9 | 0.00 | 0.48 | 0.00 | 58 | 1000.8 |
| 20260508030006 | 11 | 270 | 9.7 | 20.9 | 0.00 | 0.48 | 0.00 | 58 | 1000.9 |
| 20260508025505 | 11 | 267 | 6.4 | 17.7 | 0.00 | 0.48 | 0.48 | 58 | 1001.0 |
| 20260508025004 | 12 | 268 | 3.2 | 20.9 | 0.00 | 0.48 | 0.48 | 58 | 1000.9 |
| 20260508024504 | 12 | 264 | 8.0 | 20.9 | 0.00 | 0.48 | 0.48 | 57 | 1001.1 |
| 20260508024004 | 12 | 260 | 6.4 | 22.5 | 0.00 | 0.48 | 0.48 | 55 | 1001.1 |
| 20260508023504 | 12 | 261 | 6.4 | 22.5 | 0.00 | 0.48 | 0.48 | 56 | 1001.1 |
| 20260508023004 | 12 | 256 | 6.4 | 20.9 | 0.00 | 0.48 | 0.48 | 56 | 1001.2 |
| 20260508022505 | 12 | 250 | 8.0 | 20.9 | 0.00 | 0.48 | 0.48 | 55 | 1001.2 |
| 20260508022004 | 12 | 260 | 6.4 | 17.7 | 0.00 | 0.48 | 0.48 | 56 | 1001.0 |
| 20260508021504 | 12 | 264 | 8.0 | 17.7 | 0.00 | 0.48 | 0.48 | 57 | 1001.0 |
| 20260508021004 | 12 | 261 | 3.2 | 22.5 | 0.00 | 0.48 | 0.48 | 57 | 1001.2 |
| 20260508020004 | 12 | 265 | 6.4 | 20.9 | 0.00 | 0.48 | 0.48 | 57 | 1001.4 |
| 20260508015504 | 12 | 263 | 6.4 | 17.7 | 0.00 | 0.48 | 0.48 | 57 | 1000.8 |
| 20260508015004 | 12 | 260 | 9.7 | 17.7 | 0.00 | 0.48 | 0.48 | 58 | 1001.2 |
| 20260508014505 | 12 | 260 | 6.4 | 17.7 | 0.00 | 0.48 | 0.48 | 59 | 1000.9 |
| 20260508013504 | 12 | 264 | 6.4 | 20.9 | 0.00 | 0.48 | 0.48 | 59 | 1001.0 |
| 20260508013005 | 12 | 267 | 11.3 | 17.7 | 0.00 | 0.48 | 0.48 | 59 | 1001.1 |
| 20260508012505 | 12 | 270 | 11.3 | 20.9 | 0.00 | 0.48 | 0.48 | 59 | 1000.8 |
| 20260508012005 | 12 | 273 | 6.4 | 20.9 | 0.00 | 0.48 | 0.48 | 60 | 1000.6 |
| 20260508011504 | 12 | 279 | 6.4 | 17.7 | 0.00 | 0.48 | 0.48 | 61 | 1000.5 |
| 20260508011004 | 12 | 283 | 8.0 | 17.7 | 0.00 | 0.48 | 0.48 | 62 | 1000.4 |
| 20260508010504 | 12 | 279 | 6.4 | 14.5 | 0.00 | 0.48 | 0.48 | 62 | 1000.6 |
| 20260508005505 | 12 | 281 | 9.7 | 17.7 | 0.00 | 0.48 | 0.48 | 62 | 1000.6 |
| 20260508005004 | 13 | 273 | 6.4 | 17.7 | 0.00 | 0.48 | 0.48 | 62 | 1000.6 |
| 20260508004504 | 13 | 273 | 3.2 | 17.7 | 0.00 | 0.48 | 0.48 | 63 | 1000.4 |
| 20260508004004 | 13 | 270 | 4.8 | 17.7 | 0.00 | 0.48 | 0.48 | 62 | 1000.5 |
| 20260508003505 | 13 | 273 | 6.4 | 12.9 | 0.00 | 0.48 | 0.48 | 61 | 1000.5 |
| 20260508003005 | 13 | 262 | 4.8 | 17.7 | 0.00 | 0.48 | 0.48 | 61 | 1000.4 |
| 20260508002504 | 13 | 261 | 6.4 | 17.7 | 0.00 | 0.48 | 0.48 | 61 | 1000.2 |
| 20260508002004 | 13 | 271 | 6.4 | 17.7 | 0.00 | 0.48 | 0.48 | 62 | 1000.3 |
| 20260508001504 | 13 | 264 | 8.0 | 12.9 | 0.00 | 0.48 | 0.48 | 61 | 1000.1 |
| 20260508001004 | 13 | 246 | 6.4 | 17.7 | 0.00 | 0.48 | 0.48 | 61 | 1000.3 |
| 20260508000004 | 13 | 267 | 4.8 | 17.7 | 0.00 | 0.48 | 0.48 | 60 | 1000.2 |
| 20260507235505 | 14 | 268 | 6.4 | 17.7 | 0.00 | 0.48 | 0.48 | 60 | 1000.1 |
| 20260507235004 | 14 | 260 | 6.4 | 14.5 | 0.00 | 0.48 | 0.48 | 60 | 1000.1 |
| 20260507234504 | 14 | 259 | 6.4 | 14.5 | 0.00 | 0.48 | 0.48 | 59 | 1000.1 |
| 20260507234004 | 14 | 257 | 8.0 | 14.5 | 0.00 | 0.48 | 0.48 | 59 | 1000.3 |
| 20260507233505 | 14 | 257 | 6.4 | 14.5 | 0.00 | 0.48 | 0.48 | 59 | 1000.3 |
| 20260507232504 | 14 | 255 | 3.2 | 14.5 | 0.00 | 0.48 | 0.48 | 59 | 1000.5 |
| 20260507232005 | 15 | 249 | 6.4 | 14.5 | 0.00 | 0.48 | 0.48 | 59 | 1000.5 |
| 20260507231505 | 15 | 236 | 4.8 | 9.7 | 0.00 | 0.48 | 0.48 | 59 | 1000.4 |
| 20260507230504 | 15 | 260 | 6.4 | 17.7 | 0.00 | 0.48 | 0.48 | 57 | 1000.6 |
| 20260507230005 | 15 | 265 | 6.4 | 17.7 | 0.00 | 0.48 | 0.48 | 57 | 1000.3 |
| 20260507225004 | 15 | 264 | 3.2 | 12.9 | 0.00 | 0.48 | 0.48 | 58 | 1000.3 |
| 20260507223504 | 15 | 254 | 6.4 | 12.9 | 0.00 | 0.48 | 0.48 | 58 | 999.9 |
| 20260507222505 | 15 | 266 | 3.2 | 11.3 | 0.00 | 0.48 | 0.48 | 59 | 1000.0 |
| 20260507222004 | 15 | 265 | 6.4 | 11.3 | 0.00 | 0.48 | 0.48 | 59 | 999.7 |
| 20260507221504 | 15 | 260 | 6.4 | 11.3 | 0.00 | 0.48 | 0.48 | 59 | 999.7 |
| 20260507221004 | 15 | 266 | 3.2 | 17.7 | 0.00 | 0.48 | 0.48 | 60 | 999.6 |
| 20260507220505 | 15 | 270 | 3.2 | 17.7 | 0.00 | 0.48 | 0.48 | 60 | 999.7 |
| 20260507220004 | 15 | 264 | 4.8 | 11.3 | 0.00 | 0.48 | 0.48 | 60 | 999.6 |
| 20260507215504 | 15 | 267 | 4.8 | 11.3 | 0.00 | 0.48 | 0.48 | 61 | 999.3 |
| 20260507215005 | 15 | 273 | 4.8 | 11.3 | 0.00 | 0.48 | 0.48 | 63 | 999.2 |